Metar
 

Misión y Visión

La misión es proporcionar información fiable a la navegación aérea, contribuyendo a la seguridad, regularidad y eficiencia de la Navegación Aérea Internacional

La visión es contribuir sustancialmente al desarrollo de conocimientos y a la utilización de la meteorología aeronáutica a nivel nacional e internacional, mediante la innovación y la coparticipación con sectores sociales y productivos de la sociedad.

 
  Inicio
  Metar
  Taf
  Wintemp
  SIGMET
  Avisos
  Pronósticos
  Carpeta Meteorologica
  Imágenes Satelitales
  Climatología Aeronáutica
   
  ¿Quienes Somos?
  Contacto
  Eventos



DIRECCIONES PARA INFORMES NACIONALES E INTERNACIONALES
(Metar /Speci - TAF)



http://adds.aviationweather.gov/tafs/index.php

http://www.ogimet.com/metars.phtml



PRONÓSTICOS DE AERÓDROMO

Cuando sea necesario, el encabezamiento abreviado puede incluir un cuarto grupo consistente en tres letras para identificar los boletines demorados (RRA), corregidos(CCA) o enmendados (AAA). Los boletines adicionales demorados, corregidos o enmendados deben identificarse con las letras RRB, RRC, etc.; CCB, CCC,etc.;AAB, AAC,etc.



ESTACIONES DESCRIPCION
MPTO (M) 192300Z VRB02KT 9999 SCT018 SCT090 27/25 Q1009 NOSIG RMK ST NW-N=  
MPBO (M) 200100Z 00000KT 9999 SCT020 BKN080 Q1014=  
MPCH (M) 200100Z 0000KT 9999 SCT020 SCT080 27/25 Q1014 RMK DSNT PCPN N=  
MPSA (M)  
MPCE (M)  
MPPN (M)  
MPSM (M)  
MPJE (M)  
MPPA (M) 200200Z 33004KT (E) 9999 FEW017 SCT070 //// Q1012=  
MPMG (M) 200200Z 31003KT 9999 FEW020 SCT090 26/24 Q1012 NOSIG=  
MPDA (M) 200100Z 21004KT 9999 TS FEW014CB SCT100 25/25 Q1009 RMK TS S-SW=  
MPVR (M)  
MPWN (M)  
MPOA (M)  
MPMF (M)  
MPEJ (M)  


CLIMATICAS

MPTO

19-AGOSTO-2018

 

PCPN (mm)

T° MAX

T° MIN

VIENTO MAX (KT)

HORA

VIENTO PREDOM (KT)

18.0

28.4

23.8

01013KT

1500Z

W05

CLIMATICAS

MPMG

18-AGOSTO-2018

PCPN (mm)

T° MAX T° MIN VIENTO MAX (KT) HORA VIENTO PREDOM (KT)0
5.6 32.8 25.8

35012KT

1928Z

NW